Showing default

GHOST-4, 59133

Orbit data source: Space-Track

GHOST-4, 59133 is a payload satellite owned by Orbital Sidekick (US) in SSO that was launched on Mon, 04 Mar 2024 UTC via an FALCON 9 launch vehicle from the Air Force Western Test Range (AFWTR). Payload-class satellites include a variety of spacecraft equipped with specific instruments for various scientific and technological missions. These include communications satellites like Starlink; space stations such as the ISS; scientific satellites like the Hubble; Earth observation satellites from companies like Planet Labs, Umbra, and HawkEye 360; GPS; miniature CubeSats for education and research; and military/defense satellites.

Loading next visibility...
Identifier
59133, 2024-043AM
Orbit
SSO
Last TLE update
15 hours ago
Origin
Manufacturer
Astro Digital
Mission
Operational Commercial Imaging
Bus & Motor
CORVUS-XL, Unknown motor
Mass
85 kg wet, 85 kg dry
Launch date (UTC)
2024-03-04 (1 year ago)
Launch vehicle
FALCON 9
Launch site
Air Force Western Test Range (AFWTR)
Object type
Payload
Rocket body
Debris
Shape & HBR
Box + 1 Dish, 2 m
Radar Cross Section
0.425 m², Medium (>0.1 m² and < 1m²)

Expand to show TLE details & history

TLE from 15 hours ago
0 GHOST-4
1 59133U 24043AM  25182.12166810  .00006781  00000-0  22200-3 0  9998
2 59133  97.5175 312.9290 0010998  38.6228 321.5798 15.31959130 73595
Epoch: 2025-07-01T02:55Z
TLE epoch observation values (Epoch: 2025-07-01T02:55:12.123Z)
Latitude
-0.00004°
Longitude
-10.29317°
Altitude
467.172 km
Speed
7.636 km/s
True Right ascension
20h 51m 42s
True Declination
0° 00' 00"
Sunlit
Object was in full shadow at epoch
Visualization orbit readout
Latitude
-64.47372°
Longitude
154.39726°
Altitude
501.161 km
Speed
7.609 km/s
Apparent Right ascension
15h 32m 46s
Apparent Declination
-74° 38' 26"
Sunlit
Object is in daylight
Visualization observer readout
Local Sidereal Time
05:45:29
Azimuth
166.36° S
Elevation
-52.072°
Doppler factor
1
Orbital elements
Apogee altitude
474.451 km
Perigee altitude
459.394 km
Semi-major axis
6,845.059 km
Eccentricity
0.0011
Inclination
97.5175°
RAAN
312.929°
Arg. of periapsis
38.6228°
True anomaly
Unknown
Mean anomaly
321.5798°
Eccentric anomaly
Unknown
Mean motion
3.83246 °/min
Orbital period
93.93 mins
BSTAR
0.000222
Loading maneuver chart data...
Loading SW <> Apogee altitude chart data...
Loading historical data...
Loading historical data...
Loading historical data...
Loading historical data...
Loading historical data...
Loading historical data...
Loading historical data...

GHOST-4 Visibility forecast

Observer location: undefined°, undefined°

Span
Click to sort rows by Start time (UTC) header in descending order
Start Az.
Max El. time (UTC)
Max El. Az.
Max El.
End time (UTC)
End Az.
4 mins2025-07-01 20:44:46.910Z58.708° ENE2025-07-01 20:46:46.910Z97.459° ESE16.103°2025-07-01 20:48:46.910Z133.931° SE
5 mins2025-07-02 08:50:46.910Z172.436° S2025-07-02 08:52:46.910Z273.391° WNW44.586°2025-07-02 08:55:46.910Z345.386° N
|